EW3531 Weather Reports


time (UTC)temp
C
wind
direction
speed
KPH
gust
KPH
rain 1hr
cm
rain 24hr
cm
rain mn
cm
humidity
%
barometer
mb
20260507040021 15 160 0.0 3.2 0.00 0.00 0.00 87 1016.4
20260507034521 15 160 0.0 1.6 0.00 0.00 0.00 87 1016.2
20260507033023 15 136 0.0 6.4 0.00 0.00 0.00 87 1016.0
20260507031520 15 183 1.6 6.4 0.00 0.00 0.00 86 1015.9
20260507030020 15 158 1.6 4.8 0.00 0.00 0.00 85 1015.7
20260507024519 16 169 3.2 8.0 0.00 0.00 0.00 84 1015.6
20260507023018 16 178 3.2 9.7 0.00 0.00 0.00 83 1015.6
20260507021518 16 190 3.2 8.0 0.00 0.00 0.00 81 1015.5
20260507020018 16 181 6.4 11.3 0.00 0.00 0.00 79 1015.4
20260507014517 17 162 4.8 12.9 0.00 0.00 0.00 78 1015.5
20260507013015 17 191 6.4 12.9 0.00 0.00 0.00 78 1015.4
20260507011525 17 183 6.4 12.9 0.00 0.00 0.00 77 1015.4
20260507010011 17 170 8.0 12.9 0.00 0.00 0.00 77 1015.5
20260507004512 17 207 8.0 14.5 0.00 0.00 0.00 76 1015.6
20260507003010 17 175 8.0 14.5 0.00 0.00 0.00 76 1015.6
20260507001507 17 168 9.7 17.7 0.00 0.00 0.00 74 1015.7
20260507000005 17 205 8.0 19.3 0.00 0.00 0.00 73 1015.7
20260506234508 18 184 12.9 20.9 0.00 0.00 0.00 69 1015.8
20260506233003 18 153 9.7 22.5 0.00 0.00 0.00 69 1015.7
20260506231501 17 184 11.3 22.5 0.00 0.00 0.00 72 1015.8
20260506230058 18 194 11.3 20.9 0.00 0.00 0.00 72 1016.0
20260506224557 18 207 11.3 19.3 0.00 0.00 0.00 71 1016.3
20260506223055 18 161 11.3 19.3 0.00 0.00 0.00 73 1016.5
20260506221554 18 178 11.3 22.5 0.00 0.00 0.00 74 1016.8
20260506220059 18 199 9.7 20.9 0.00 0.00 0.00 74 1017.1
20260506214552 18 211 9.7 20.9 0.00 0.00 0.00 73 1017.3
20260506213055 18 157 11.3 22.5 0.00 0.00 0.00 73 1017.3
20260506211550 18 186 9.7 19.3 0.00 0.00 0.00 73 1017.4
20260506210059 18 190 9.7 17.7 0.00 0.00 0.00 72 1017.5
20260506204551 18 141 11.3 17.7 0.00 0.00 0.00 71 1017.7
20260506203137 18 170 8.0 17.7 0.00 0.00 0.00 72 1017.6
20260506201648 18 182 11.3 16.1 0.00 0.00 0.00 72 1017.8
20260506200050 18 253 9.7 16.1 0.00 0.00 0.00 71 1017.9
20260506194548 18 164 9.7 16.1 0.00 0.00 0.00 70 1018.1
20260506193044 19 135 8.0 17.7 0.00 0.00 0.00 71 1018.1
20260506191545 18 157 8.0 16.1 0.00 0.00 0.00 73 1018.2
20260506190048 18 173 8.0 16.1 0.00 0.00 0.00 72 1018.2
20260506184552 18 198 8.0 19.3 0.00 0.00 0.00 74 1018.4
20260506183039 18 191 8.0 19.3 0.00 0.00 0.00 73 1018.3
20260506181539 18 196 9.7 16.1 0.00 0.00 0.00 74 1018.5
20260506180039 18 165 11.3 17.7 0.00 0.00 0.00 73 1018.5
20260506174538 18 198 8.0 17.7 0.00 0.00 0.00 72 1018.5
20260506173047 18 123 8.0 12.9 0.00 0.00 0.00 71 1018.4
20260506171536 18 142 3.2 14.5 0.00 0.00 0.00 71 1018.4
20260506170033 18 192 6.4 14.5 0.00 0.00 0.00 71 1018.3
20260506164531 18 149 3.2 12.9 0.00 0.00 0.00 72 1018.3
20260506163045 17 161 4.8 12.9 0.00 0.00 0.00 72 1018.3
20260506161528 17 142 3.2 11.3 0.00 0.00 0.00 73 1018.3
20260506160025 17 157 6.4 11.3 0.00 0.00 0.00 73 1018.3
20260506154531 16 51 1.6 6.4 0.00 0.00 0.00 73 1018.2
20260506153018 16 177 0.0 8.0 0.00 0.00 0.00 75 1018.3
20260506151515 15 50 0.0 8.0 0.00 0.00 0.00 76 1018.2
20260506150011 15 58 4.8 9.7 0.00 0.00 0.00 78 1018.2
20260506144506 13 39 4.8 9.7 0.00 0.00 0.00 81 1018.1
20260506143003 13 5 6.4 9.7 0.00 0.00 0.00 85 1017.9
20260506141501 12 31 3.2 6.4 0.00 0.00 0.00 88 1017.9
20260506134559 11 9 1.6 3.2 0.00 0.00 0.00 89 1017.7
20260506133058 11 326 0.0 3.2 0.00 0.00 0.00 88 1017.6
20260506131607 11 360 0.0 0.0 0.00 0.00 0.00 87 1017.6
20260506130056 11 45 0.0 0.0 0.00 0.00 0.00 87 1017.4
20260506124556 11 155 0.0 0.0 0.00 0.00 0.00 87 1017.3
20260506123057 11 161 0.0 0.0 0.00 0.00 0.00 87 1017.3
20260506121604 11 227 0.0 0.0 0.00 0.00 0.00 87 1017.1
20260506120048 11 355 0.0 0.0 0.00 0.00 0.00 87 1016.9
20260506114546 12 355 0.0 1.6 0.00 0.00 0.00 87 1016.8
20260506113047 12 355 1.6 4.8 0.00 0.00 0.00 87 1016.8
20260506111545 12 11 0.0 4.8 0.00 0.00 0.00 87 1016.7
20260506110044 12 40 3.2 4.8 0.00 0.00 0.00 87 1016.7
20260506104547 12 13 1.6 4.8 0.00 0.00 0.00 87 1016.7
20260506103043 12 5 0.0 4.8 0.00 0.00 0.00 87 1016.7
20260506101542 12 338 1.6 4.8 0.00 0.00 0.00 87 1016.6
20260506100040 12 27 1.6 4.8 0.00 0.00 0.00 87 1016.7
20260506094539 12 5 1.6 6.4 0.00 0.00 0.00 87 1016.7
20260506093037 12 38 0.0 0.0 0.00 0.00 0.00 86 1016.9
20260506091536 12 9 0.0 3.2 0.00 0.00 0.00 87 1017.0
20260506090034 12 5 1.6 6.4 0.00 0.00 0.00 87 1017.0
20260506084542 12 24 3.2 14.5 0.00 0.00 0.00 87 1017.1
20260506083033 12 34 3.2 9.7 0.00 0.00 0.00 87 1017.1
20260506081532 13 37 6.4 12.9 0.00 0.00 0.00 87 1017.1
20260506073025 12 9 6.4 12.9 0.00 0.00 0.00 87 1017.0
20260506071522 12 9 4.8 12.9 0.00 0.00 0.00 87 1016.9
20260506061515 13 17 4.8 8.0 0.00 0.00 0.00 87 1016.3
20260506060116 13 26 4.8 11.3 0.00 0.00 0.00 87 1016.2
20260506044513 13 355 4.8 8.0 0.00 0.00 0.00 86 1015.6
20260506043004 13 29 3.2 6.4 0.00 0.00 0.00 86 1015.5
20260506041504 14 62 1.6 6.4 0.00 0.00 0.00 85 1015.4